User: anonymous   Login
Location: Unspecified
(0.0000°N, 0.0000°E)
Time: 18:41:13
(UTC+00:00)
Language:

NUDTSAT - Orbit

View from above orbital plane
View from above orbital plane
View from above satellite
View from above satellite

Ground track
Ground track

The orbit data is extracted from the following two-line orbital elements,

1 42787U 17036Y   19077.59384704 +.00001532 +00000-0 +67851-4 0  9991
2 42787 097.3675 137.9117 0009895 185.5641 174.5492 15.23113071096121
Epoch (UTC): 18 March 2019 14:15:08
Eccentricity: 0.0009895
inclination: 97.3675°
perigee height: 489 km
apogee height: 503 km
right ascension of ascending node: 137.9117°
argument of perigee: 185.5641°
revolutions per day: 15.23113071
mean anomaly at epoch: 174.5492°
orbit number at epoch: 9612

The dashed part of the orbit path shows where the satellite is in the earth's shadow,  

DLR